EW4745 Weather Reports


Display with metric or nautical units.
time (UTC)temp
F
wind
direction
speed
MPH
gust
MPH
rain 1hr
in
rain 24hr
in
rain mn
in
humidity
%
barometer
mb
20190318235653 66 66 0.0 2.0 0.00 0.00 0.00 34 1023.0
20190318235142 66 108 1.0 2.0 0.00 0.00 0.00 33 1023.0
20190318234653 66 55 1.0 2.0 0.00 0.00 0.00 32 1023.0
20190318234148 67 17 1.0 2.0 0.00 0.00 0.00 32 1023.0
20190318233703 67 104 1.0 2.0 0.00 0.00 0.00 32 1023.0
20190318233155 67 74 0.0 0.0 0.00 0.00 0.00 33 1022.0
20190318232657 67 93 1.0 2.0 0.00 0.00 0.00 33 1022.0
20190318232205 67 83 1.0 2.0 0.00 0.00 0.00 32 1022.0
20190318231657 67 94 2.0 2.0 0.00 0.00 0.00 33 1022.0
20190318231201 67 89 1.0 1.0 0.00 0.00 0.00 32 1022.0
20190318230645 67 52 2.0 3.0 0.00 0.00 0.00 32 1022.0
20190318230200 67 36 3.0 3.0 0.00 0.00 0.00 31 1022.0
20190318225658 67 112 3.0 5.0 0.00 0.00 0.00 32 1022.0
20190318225202 67 81 1.0 1.0 0.00 0.00 0.00 32 1022.0
20190318224657 67 92 4.0 4.0 0.00 0.00 0.00 32 1023.0
20190318224150 68 63 1.0 1.0 0.00 0.00 0.00 31 1023.0
20190318223703 68 38 2.0 2.0 0.00 0.00 0.00 31 1023.0
20190318223201 68 60 2.0 2.0 0.00 0.00 0.00 31 1022.0
20190318222656 69 208 1.0 1.0 0.00 0.00 0.00 32 1022.0
20190318222200 69 41 4.0 5.0 0.00 0.00 0.00 30 1022.0
20190318221657 69 32 1.0 1.0 0.00 0.00 0.00 31 1022.0
20190318221157 70 35 3.0 6.0 0.00 0.00 0.00 30 1022.0
20190318220707 70 339 1.0 2.0 0.00 0.00 0.00 31 1022.0
20190318220159 70 273 0.0 0.0 0.00 0.00 0.00 30 1023.0
20190318215656 70 9 0.0 0.0 0.00 0.00 0.00 30 1023.0
20190318215205 69 12 0.0 0.0 0.00 0.00 0.00 30 1023.0
20190318214657 69 117 1.0 1.0 0.00 0.00 0.00 31 1023.0
20190318214150 69 45 3.0 6.0 0.00 0.00 0.00 31 1023.0
20190318213705 70 75 2.0 3.0 0.00 0.00 0.00 29 1023.0
20190318213148 71 50 3.0 3.0 0.00 0.00 0.00 29 1023.0
20190318212659 70 352 1.0 2.0 0.00 0.00 0.00 29 1023.0
20190318212204 70 45 3.0 8.0 0.00 0.00 0.00 31 1023.0
20190318211655 70 62 1.0 2.0 0.00 0.00 0.00 31 1023.0
20190318211159 70 90 0.0 0.0 0.00 0.00 0.00 30 1023.0
20190318210708 71 71 2.0 3.0 0.00 0.00 0.00 30 1023.0
20190318210157 71 34 2.0 2.0 0.00 0.00 0.00 31 1023.0
20190318205653 70 213 1.0 2.0 0.00 0.00 0.00 31 1023.0
20190318205200 69 48 3.0 3.0 0.00 0.00 0.00 32 1023.0
20190318204649 69 62 2.0 5.0 0.00 0.00 0.00 31 1023.0
20190318204146 71 64 2.0 2.0 0.00 0.00 0.00 32 1023.0
20190318203649 72 50 2.0 5.0 0.00 0.00 0.00 30 1023.0
20190318203142 71 208 1.0 1.0 0.00 0.00 0.00 28 1023.0
20190318202655 70 295 1.0 1.0 0.00 0.00 0.00 30 1023.0
20190318202203 70 78 2.0 6.0 0.00 0.00 0.00 29 1024.0
20190318201643 69 96 2.0 2.0 0.00 0.00 0.00 30 1024.0
20190318201144 69 59 2.0 2.0 0.00 0.00 0.00 31 1024.0
20190318200705 69 122 5.0 5.0 0.00 0.00 0.00 28 1024.0
20190318200155 69 68 3.0 3.0 0.00 0.00 0.00 27 1024.0
20190318195642 69 82 2.0 2.0 0.00 0.00 0.00 29 1024.0
20190318195203 69 21 4.0 7.0 0.00 0.00 0.00 29 1024.0
20190318194709 68 64 2.0 2.0 0.00 0.00 0.00 32 1024.0
20190318194144 68 103 1.0 1.0 0.00 0.00 0.00 31 1024.0
20190318193700 67 79 3.0 3.0 0.00 0.00 0.00 31 1024.0
20190318193156 67 66 1.0 2.0 0.00 0.00 0.00 33 1025.1
20190318192636 67 46 0.0 0.0 0.00 0.00 0.00 32 1025.1
20190318192159 67 42 2.0 2.0 0.00 0.00 0.00 31 1025.1
20190318191656 67 97 2.0 2.0 0.00 0.00 0.00 31 1025.1
20190318191151 67 96 2.0 2.0 0.00 0.00 0.00 32 1025.1
20190318190703 67 39 4.0 4.0 0.00 0.00 0.00 33 1025.1
20190318190157 67 89 2.0 2.0 0.00 0.00 0.00 33 1025.1
20190318185628 67 86 2.0 2.0 0.00 0.00 0.00 32 1025.1
20190318185159 67 92 0.0 0.0 0.00 0.00 0.00 32 1025.1
20190318184624 67 41 3.0 5.0 0.00 0.00 0.00 34 1025.1
20190318184129 67 47 2.0 3.0 0.00 0.00 0.00 33 1025.1
20190318183657 67 37 2.0 2.0 0.00 0.00 0.00 34 1025.1
20190318183151 67 56 1.0 1.0 0.00 0.00 0.00 35 1026.1
20190318182632 67 51 4.0 5.0 0.00 0.00 0.00 34 1026.1
20190318182131 67 49 1.0 1.0 0.00 0.00 0.00 35 1026.1
20190318181633 67 80 2.0 2.0 0.00 0.00 0.00 34 1026.1
20190318181142 67 110 2.0 2.0 0.00 0.00 0.00 34 1026.1
20190318180639 67 64 2.0 2.0 0.00 0.00 0.00 33 1026.1
20190318180143 66 42 3.0 7.0 0.00 0.00 0.00 34 1026.1
20190318175626 65 119 2.0 4.0 0.00 0.00 0.00 34 1026.1
20190318175134 65 38 5.0 5.0 0.00 0.00 0.00 37 1026.1
20190318174643 64 73 1.0 2.0 0.00 0.00 0.00 39 1026.1
20190318174124 64 44 2.0 2.0 0.00 0.00 0.00 40 1026.1
20190318173648 64 81 2.0 4.0 0.00 0.00 0.00 41 1026.1
20190318173124 64 76 4.0 5.0 0.00 0.00 0.00 37 1026.1
20190318172625 64 44 2.0 2.0 0.00 0.00 0.00 37 1026.1
20190318172204 64 76 1.0 2.0 0.00 0.00 0.00 41 1026.1
20190318171640 63 58 1.0 3.0 0.00 0.00 0.00 44 1026.1
20190318171144 63 36 2.0 2.0 0.00 0.00 0.00 44 1026.1
20190318170648 63 43 4.0 5.0 0.00 0.00 0.00 43 1026.1
20190318170143 63 50 2.0 6.0 0.00 0.00 0.00 43 1026.1
20190318165642 63 51 2.0 2.0 0.00 0.00 0.00 43 1027.1
20190318165200 62 46 5.0 5.0 0.00 0.00 0.00 44 1027.1
20190318164630 62 90 4.0 4.0 0.00 0.00 0.00 44 1027.1
20190318164124 62 30 2.0 3.0 0.00 0.00 0.00 45 1026.1
20190318163644 61 63 1.0 2.0 0.00 0.00 0.00 49 1026.1
20190318163115 60 41 2.0 2.0 0.00 0.00 0.00 49 1026.1
20190318162623 60 68 2.0 2.0 0.00 0.00 0.00 50 1026.1
20190318162154 60 42 1.0 1.0 0.00 0.00 0.00 55 1026.1
20190318161629 59 39 2.0 3.0 0.00 0.00 0.00 56 1026.1
20190318161138 59 60 5.0 6.0 0.00 0.00 0.00 56 1026.1
20190318160621 58 40 6.0 6.0 0.00 0.00 0.00 57 1026.1
20190318160138 58 38 2.0 2.0 0.00 0.00 0.00 60 1026.1
20190318155620 58 33 2.0 2.0 0.00 0.00 0.00 61 1026.1
20190318155131 58 30 2.0 3.0 0.00 0.00 0.00 63 1026.1
20190318154646 57 5 2.0 2.0 0.00 0.00 0.00 64 1026.1
20190318154122 57 39 3.0 3.0 0.00 0.00 0.00 64 1026.1
20190318153631 56 13 2.0 2.0 0.00 0.00 0.00 66 1026.1
20190318153132 56 37 1.0 2.0 0.00 0.00 0.00 69 1026.1
20190318152630 56 38 2.0 2.0 0.00 0.00 0.00 69 1026.1
20190318152127 55 36 1.0 2.0 0.00 0.00 0.00 70 1026.1
20190318151643 55 26 0.0 1.0 0.00 0.00 0.00 71 1026.1
20190318151124 55 27 1.0 2.0 0.00 0.00 0.00 71 1026.1
20190318150631 55 29 2.0 2.0 0.00 0.00 0.00 72 1026.1
20190318150153 55 38 1.0 2.0 0.00 0.00 0.00 73 1026.1
20190318145624 55 38 0.0 0.0 0.00 0.00 0.00 73 1026.1
20190318145121 55 38 1.0 2.0 0.00 0.00 0.00 73 1025.1
20190318144614 54 38 0.0 1.0 0.00 0.00 0.00 73 1025.1
20190318144134 54 38 0.0 0.0 0.00 0.00 0.00 72 1025.1
20190318143623 54 37 0.0 0.0 0.00 0.00 0.00 74 1025.1
20190318143117 54 38 0.0 1.0 0.00 0.00 0.00 73 1025.1
20190318142637 54 29 1.0 1.0 0.00 0.00 0.00 74 1025.1
20190318142120 54 35 1.0 2.0 0.00 0.00 0.00 74 1025.1
20190318141634 53 37 1.0 1.0 0.00 0.00 0.00 75 1025.1
20190318141120 53 32 1.0 1.0 0.00 0.00 0.00 76 1025.1
20190318140633 53 42 2.0 3.0 0.00 0.00 0.00 77 1025.1
20190318140126 52 22 2.0 2.0 0.00 0.00 0.00 77 1025.1
20190318135616 52 36 2.0 2.0 0.00 0.00 0.00 78 1025.1
20190318135117 52 38 1.0 2.0 0.00 0.00 0.00 78 1025.1
20190318134622 52 44 1.0 1.0 0.00 0.00 0.00 79 1025.1
20190318134116 51 44 0.0 1.0 0.00 0.00 0.00 81 1025.1
20190318133623 51 44 0.0 0.0 0.00 0.00 0.00 81 1025.1
20190318133117 51 44 0.0 1.0 0.00 0.00 0.00 82 1025.1
20190318132610 51 36 1.0 1.0 0.00 0.00 0.00 82 1025.1
20190318132118 51 36 0.0 1.0 0.00 0.00 0.00 82 1025.1
20190318131618 51 35 0.0 0.0 0.00 0.00 0.00 82 1024.0
20190318131131 50 36 0.0 0.0 0.00 0.00 0.00 82 1024.0
20190318130628 50 36 0.0 0.0 0.00 0.00 0.00 82 1024.0
20190318130131 50 37 0.0 0.0 0.00 0.00 0.00 82 1024.0
20190318125632 50 38 0.0 2.0 0.00 0.00 0.00 82 1024.0
20190318125111 51 38 0.0 0.0 0.00 0.00 0.00 82 1024.0
20190318124614 51 38 0.0 1.0 0.00 0.00 0.00 81 1024.0
20190318124116 51 40 0.0 0.0 0.00 0.00 0.00 81 1024.0
20190318123609 50 40 0.0 0.0 0.00 0.00 0.00 82 1024.0
20190318123130 50 39 0.0 0.0 0.00 0.00 0.00 82 1024.0
20190318122629 50 45 0.0 1.0 0.00 0.00 0.00 82 1024.0
20190318122113 50 45 0.0 0.0 0.00 0.00 0.00 82 1024.0
20190318121614 50 45 1.0 1.0 0.00 0.00 0.00 82 1024.0
20190318121108 50 45 0.0 0.0 0.00 0.00 0.00 82 1024.0
20190318120635 50 45 0.0 0.0 0.00 0.00 0.00 82 1024.0
20190318120132 50 46 1.0 1.0 0.00 0.00 0.00 82 1023.0
20190318115610 50 51 0.0 1.0 0.00 0.00 0.00 82 1023.0
20190318115114 50 51 0.0 0.0 0.00 0.00 0.00 82 1023.0
20190318114617 50 51 0.0 0.0 0.00 0.00 0.00 81 1024.0
20190318114116 50 51 0.0 1.0 0.00 0.00 0.00 81 1024.0
20190318113610 50 51 0.0 0.0 0.00 0.00 0.00 81 1024.0
20190318113145 50 53 0.0 0.0 0.00 0.00 0.00 81 1024.0
20190318112619 50 53 0.0 0.0 0.00 0.00 0.00 82 1024.0
20190318112151 50 53 0.0 0.0 0.00 0.00 0.00 81 1024.0
20190318111612 50 53 0.0 0.0 0.00 0.00 0.00 81 1024.0
20190318111120 50 53 0.0 0.0 0.00 0.00 0.00 82 1024.0
20190318110646 50 53 0.0 0.0 0.00 0.00 0.00 82 1024.0
20190318110127 50 53 0.0 0.0 0.00 0.00 0.00 82 1024.0
20190318105611 49 53 0.0 0.0 0.00 0.00 0.00 83 1024.0
20190318105113 49 53 0.0 0.0 0.00 0.00 0.00 83 1024.0
20190318104615 49 53 0.0 0.0 0.00 0.00 0.00 83 1023.0
20190318104112 50 53 0.0 0.0 0.00 0.00 0.00 83 1023.0
20190318103636 50 53 0.0 0.0 0.00 0.00 0.00 83 1023.0
20190318103117 50 53 0.0 0.0 0.00 0.00 0.00 83 1024.0
20190318102631 50 53 0.0 0.0 0.00 0.00 0.00 82 1024.0
20190318102115 50 53 0.0 0.0 0.00 0.00 0.00 82 1023.0
20190318101615 50 53 0.0 0.0 0.00 0.00 0.00 82 1023.0
20190318101116 50 53 0.0 0.0 0.00 0.00 0.00 82 1023.0
20190318100616 50 53 0.0 0.0 0.00 0.00 0.00 82 1023.0
20190318100122 50 53 0.0 0.0 0.00 0.00 0.00 82 1023.0
20190318095612 50 53 0.0 0.0 0.00 0.00 0.00 81 1023.0
20190318095133 50 53 0.0 0.0 0.00 0.00 0.00 81 1023.0
20190318094609 50 53 0.0 0.0 0.00 0.00 0.00 82 1023.0
20190318094112 50 53 0.0 0.0 0.00 0.00 0.00 82 1023.0
20190318093624 50 53 0.0 0.0 0.00 0.00 0.00 82 1023.0
20190318093131 51 53 0.0 0.0 0.00 0.00 0.00 81 1023.0
20190318092606 51 53 0.0 0.0 0.00 0.00 0.00 81 1023.0
20190318092125 51 53 0.0 0.0 0.00 0.00 0.00 81 1024.0
20190318091610 51 53 0.0 0.0 0.00 0.00 0.00 80 1024.0
20190318091108 51 53 0.0 0.0 0.00 0.00 0.00 79 1024.0
20190318090632 51 53 0.0 0.0 0.00 0.00 0.00 79 1024.0
20190318090128 51 53 0.0 0.0 0.00 0.00 0.00 79 1024.0
20190318085627 52 53 0.0 0.0 0.00 0.00 0.00 79 1024.0
20190318085110 52 53 0.0 0.0 0.00 0.00 0.00 79 1024.0
20190318084606 52 53 0.0 0.0 0.00 0.00 0.00 79 1024.0
20190318084131 52 53 0.0 0.0 0.00 0.00 0.00 79 1024.0
20190318083612 52 53 0.0 0.0 0.00 0.00 0.00 79 1024.0
20190318083108 52 53 0.0 0.0 0.00 0.00 0.00 79 1024.0
20190318082625 52 53 0.0 0.0 0.00 0.00 0.00 79 1024.0
20190318082112 53 53 0.0 0.0 0.00 0.00 0.00 79 1024.0
20190318081633 53 53 0.0 0.0 0.00 0.00 0.00 79 1024.0
20190318081107 53 53 0.0 0.0 0.00 0.00 0.00 79 1024.0
20190318080611 53 53 0.0 0.0 0.00 0.00 0.00 79 1024.0
20190318080130 52 53 0.0 0.0 0.00 0.00 0.00 79 1025.1
20190318075606 52 53 0.0 0.0 0.00 0.00 0.00 79 1025.1
20190318075133 52 53 0.0 0.0 0.00 0.00 0.00 79 1025.1
20190318074630 52 53 0.0 0.0 0.00 0.00 0.00 80 1025.1
20190318074131 52 53 0.0 0.0 0.00 0.00 0.00 80 1025.1
20190318073639 52 53 0.0 0.0 0.00 0.00 0.00 79 1025.1
20190318073107 52 53 0.0 0.0 0.00 0.00 0.00 79 1025.1
20190318072607 52 53 0.0 0.0 0.00 0.00 0.00 80 1025.1
20190318072112 52 53 0.0 0.0 0.00 0.00 0.00 80 1025.1
20190318071606 52 53 0.0 0.0 0.00 0.00 0.00 80 1025.1
20190318071107 52 53 0.0 0.0 0.00 0.00 0.00 79 1025.1
20190318070613 52 53 0.0 0.0 0.00 0.00 0.00 79 1025.1
20190318070133 52 53 0.0 0.0 0.00 0.00 0.00 78 1025.1
20190318065629 52 53 0.0 0.0 0.00 0.00 0.00 78 1025.1
20190318065131 52 53 0.0 0.0 0.00 0.00 0.00 78 1025.1
20190318064609 52 53 0.0 0.0 0.00 0.00 0.00 77 1025.1
20190318064134 52 53 0.0 0.0 0.00 0.00 0.00 76 1025.1
20190318063617 52 53 0.0 0.0 0.00 0.00 0.00 77 1025.1
20190318063111 52 53 0.0 0.0 0.00 0.00 0.00 77 1025.1
20190318062610 52 53 0.0 0.0 0.00 0.00 0.00 76 1025.1
20190318062134 52 53 0.0 0.0 0.00 0.00 0.00 77 1025.1
20190318061610 52 53 0.0 0.0 0.00 0.00 0.00 77 1025.1
20190318061109 52 53 0.0 0.0 0.00 0.00 0.00 77 1025.1
20190318060630 52 53 0.0 0.0 0.00 0.00 0.00 78 1025.1
20190318060118 52 53 0.0 0.0 0.00 0.00 0.00 78 1025.1
20190318055608 52 53 0.0 0.0 0.00 0.00 0.00 77 1025.1
20190318055116 52 53 0.0 0.0 0.00 0.00 0.00 77 1025.1
20190318054631 52 53 0.0 0.0 0.00 0.00 0.00 77 1025.1
20190318054132 52 53 0.0 0.0 0.00 0.00 0.00 77 1025.1
20190318053618 52 53 0.0 0.0 0.00 0.00 0.00 77 1025.1
20190318053114 52 53 0.0 0.0 0.00 0.00 0.00 77 1025.1
20190318052610 53 53 0.0 0.0 0.00 0.00 0.00 76 1025.1
20190318052116 53 53 0.0 0.0 0.00 0.00 0.00 76 1025.1
20190318051612 53 53 0.0 0.0 0.00 0.00 0.00 76 1025.1
20190318051132 53 53 0.0 0.0 0.00 0.00 0.00 76 1025.1
20190318050628 53 53 0.0 0.0 0.00 0.00 0.00 76 1025.1
20190318045615 53 53 0.0 0.0 0.00 0.00 0.00 75 1025.1
20190318045132 54 53 0.0 0.0 0.00 0.00 0.00 75 1025.1
20190318044628 54 53 0.0 0.0 0.00 0.00 0.00 74 1025.1
20190318044129 54 53 0.0 0.0 0.00 0.00 0.00 74 1025.1
20190318043651 54 53 0.0 0.0 0.00 0.00 0.00 73 1025.1
20190318043123 54 53 0.0 0.0 0.00 0.00 0.00 73 1025.1
20190318042621 54 53 0.0 0.0 0.00 0.00 0.00 74 1025.1
20190318042131 54 53 0.0 0.0 0.00 0.00 0.00 74 1025.1
20190318041620 54 53 0.0 0.0 0.00 0.00 0.00 73 1025.1
20190318041129 54 53 0.0 0.0 0.00 0.00 0.00 73 1025.1
20190318040626 54 53 0.0 0.0 0.00 0.00 0.00 73 1025.1
20190318040141 54 53 0.0 0.0 0.00 0.00 0.00 73 1025.1
20190318035627 54 53 0.0 0.0 0.00 0.00 0.00 73 1025.1
20190318035133 54 53 0.0 0.0 0.00 0.00 0.00 72 1025.1
20190318034625 54 53 0.0 0.0 0.00 0.00 0.00 71 1025.1
20190318034124 55 53 0.0 0.0 0.00 0.00 0.00 70 1025.1
20190318033639 55 53 0.0 0.0 0.00 0.00 0.00 69 1025.1
20190318033123 55 53 0.0 0.0 0.00 0.00 0.00 69 1025.1
20190318032623 55 53 0.0 0.0 0.00 0.00 0.00 68 1025.1
20190318032133 55 53 0.0 0.0 0.00 0.00 0.00 67 1025.1
20190318031633 56 53 0.0 0.0 0.00 0.00 0.00 66 1025.1
20190318031131 56 53 0.0 0.0 0.00 0.00 0.00 65 1025.1
20190318030635 56 53 0.0 0.0 0.00 0.00 0.00 64 1025.1
20190318030149 56 53 0.0 0.0 0.00 0.00 0.00 63 1025.1
20190318025629 56 53 0.0 0.0 0.00 0.00 0.00 61 1025.1
20190318025144 56 54 0.0 0.0 0.00 0.00 0.00 59 1025.1
20190318024631 56 54 0.0 0.0 0.00 0.00 0.00 57 1025.1
20190318024142 57 54 0.0 0.0 0.00 0.00 0.00 55 1025.1
20190318023659 57 54 0.0 0.0 0.00 0.00 0.00 52 1025.1
20190318023149 57 54 0.0 0.0 0.00 0.00 0.00 51 1025.1
20190318022645 58 54 0.0 0.0 0.00 0.00 0.00 50 1025.1
20190318022154 58 54 1.0 2.0 0.00 0.00 0.00 49 1025.1
20190318021644 58 53 0.0 0.0 0.00 0.00 0.00 49 1024.0
20190318021133 58 54 0.0 0.0 0.00 0.00 0.00 49 1024.0
20190318020704 58 54 0.0 1.0 0.00 0.00 0.00 48 1024.0
20190318020149 58 53 0.0 2.0 0.00 0.00 0.00 47 1025.1
20190318015634 58 53 0.0 0.0 0.00 0.00 0.00 47 1025.1
20190318015201 58 53 0.0 0.0 0.00 0.00 0.00 47 1025.1
20190318014648 58 53 0.0 0.0 0.00 0.00 0.00 47 1024.0
20190318014152 59 53 0.0 0.0 0.00 0.00 0.00 47 1024.0
20190318013657 59 53 0.0 0.0 0.00 0.00 0.00 48 1024.0
20190318013156 59 53 0.0 0.0 0.00 0.00 0.00 46 1024.0
20190318012640 59 53 0.0 0.0 0.00 0.00 0.00 47 1024.0
20190318012200 59 53 0.0 0.0 0.00 0.00 0.00 46 1024.0
20190318011648 60 53 0.0 0.0 0.00 0.00 0.00 46 1024.0
20190318011157 60 53 0.0 0.0 0.00 0.00 0.00 45 1024.0
20190318010657 60 53 0.0 0.0 0.00 0.00 0.00 45 1024.0
20190318010201 60 53 0.0 0.0 0.00 0.00 0.00 45 1024.0
20190318005649 60 53 0.0 0.0 0.00 0.00 0.00 45 1024.0
20190318005157 61 53 0.0 0.0 0.00 0.00 0.00 45 1024.0
20190318004657 61 53 0.0 0.0 0.00 0.00 0.00 45 1024.0
20190318004139 61 53 0.0 0.0 0.00 0.00 0.00 45 1024.0
20190318003654 62 54 0.0 0.0 0.00 0.00 0.00 44 1024.0
20190318003151 62 53 1.0 1.0 0.00 0.00 0.00 42 1024.0
20190318002653 62 54 1.0 1.0 0.00 0.00 0.00 42 1024.0
20190318002202 62 53 1.0 2.0 0.00 0.00 0.00 41 1024.0
20190318001655 63 41 2.0 3.0 0.00 0.00 0.00 41 1024.0
20190318001144 63 43 1.0 2.0 0.00 0.00 0.00 40 1024.0
20190318000704 63 67 0.0 0.0 0.00 0.00 0.00 39 1024.0
20190318000158 63 67 1.0 1.0 0.00 0.00 0.00 39 1024.0